Time,TemperatureF,DewpointF,PressureIn,WindDirection,WindDirectionDegrees,WindSpeedMPH,WindSpeedGustMPH,Humidity,HourlyPrecipIn,Conditions,Clouds,dailyrainin,SoftwareType,DateUTC
2013-04-09 00:02:00,57.2,44.6,30.35,South,179,0.0,-999.9,63,-99.99,,,-99.99,,2013-04-09 04:02:00,
2013-04-09 00:04:00,57.2,44.6,30.35,South,179,0.0,-999.9,63,-99.99,,,-99.99,,2013-04-09 04:04:00,
2013-04-09 00:10:00,57.2,44.6,30.35,South,179,0.0,-999.9,63,-99.99,,,-99.99,,2013-04-09 04:10:00,
2013-04-09 00:14:00,57.2,44.6,30.34,East,95,0.0,-999.9,63,-99.99,,,-99.99,,2013-04-09 04:14:00,
2013-04-09 00:20:00,57.2,44.6,30.34,East,95,0.0,-999.9,63,-99.99,,,-99.99,,2013-04-09 04:20:00,
2013-04-09 00:26:00,57.2,44.6,30.34,North,0,0.0,-999.9,63,-99.99,,,-99.99,,2013-04-09 04:26:00,
2013-04-09 00:32:00,57.2,44.6,30.34,North,0,0.0,-999.9,63,-99.99,,,-99.99,,2013-04-09 04:32:00,
2013-04-09 00:38:00,57.2,44.6,30.34,North,0,0.0,-999.9,63,-99.99,,,-99.99,,2013-04-09 04:38:00,
2013-04-09 00:44:00,57.2,44.6,30.34,North,0,0.0,-999.9,63,-99.99,,,-99.99,,2013-04-09 04:44:00,
2013-04-09 00:54:00,57.2,44.6,30.34,North,0,0.0,-999.9,63,-99.99,,,-99.99,,2013-04-09 04:54:00,
2013-04-09 01:04:00,57.2,44.6,30.34,North,0,0.0,-999.9,63,-99.99,,,-99.99,,2013-04-09 05:04:00,
2013-04-09 01:10:00,57.2,44.6,30.34,North,0,0.0,-999.9,63,-99.99,,,-99.99,,2013-04-09 05:10:00,
2013-04-09 01:34:00,57.2,46.4,30.32,North,0,0.0,-999.9,67,-99.99,,,-99.99,,2013-04-09 05:34:00,
2013-04-09 01:40:00,57.2,46.4,30.32,North,0,0.0,-999.9,67,-99.99,,,-99.99,,2013-04-09 05:40:00,
2013-04-09 01:46:00,57.2,46.4,30.31,North,0,0.0,-999.9,67,-99.99,,,-99.99,,2013-04-09 05:46:00,
2013-04-09 02:14:00,57.2,46.4,30.32,North,0,0.0,-999.9,67,-99.99,,,-99.99,,2013-04-09 06:14:00,
2013-04-09 02:20:00,57.2,46.4,30.32,North,0,0.0,-999.9,67,-99.99,,,-99.99,,2013-04-09 06:20:00,
2013-04-09 02:26:00,57.2,46.4,30.31,North,0,0.0,-999.9,67,-99.99,,,-99.99,,2013-04-09 06:26:00,
2013-04-09 02:34:00,57.2,46.4,30.30,North,0,0.0,-999.9,67,-99.99,,,-99.99,,2013-04-09 06:34:00,
2013-04-09 02:40:00,57.2,46.4,30.30,North,0,0.0,-999.9,67,-99.99,,,-99.99,,2013-04-09 06:40:00,
2013-04-09 02:46:00,57.2,46.4,30.31,NNW,347,0.0,-999.9,67,-99.99,,,-99.99,,2013-04-09 06:46:00,
2013-04-09 02:54:00,57.2,46.4,30.31,NNW,347,0.0,-999.9,67,-99.99,,,-99.99,,2013-04-09 06:54:00,
2013-04-09 03:00:00,57.2,46.4,30.30,North,0,0.0,-999.9,67,-99.99,,,-99.99,,2013-04-09 07:00:00,
2013-04-09 03:06:00,57.2,46.4,30.30,North,0,0.0,-999.9,67,-99.99,,,-99.99,,2013-04-09 07:06:00,
2013-04-09 03:12:00,57.2,46.4,30.29,South,188,3.5,-999.9,67,-99.99,,,-99.99,,2013-04-09 07:12:00,
2013-04-09 03:18:00,57.2,46.4,30.29,South,188,3.5,-999.9,67,-99.99,,,-99.99,,2013-04-09 07:18:00,
2013-04-09 03:24:00,55.4,46.4,30.29,North,0,0.0,-999.9,72,-99.99,,,-99.99,,2013-04-09 07:24:00,
2013-04-09 03:30:00,55.4,46.4,30.29,North,0,0.0,-999.9,72,-99.99,,,-99.99,,2013-04-09 07:30:00,
2013-04-09 03:36:00,55.4,48.2,30.29,North,0,0.0,-999.9,77,-99.99,,,-99.99,,2013-04-09 07:36:00,
2013-04-09 03:44:00,55.4,46.4,30.29,North,0,0.0,-999.9,72,-99.99,,,-99.99,,2013-04-09 07:44:00,
2013-04-09 03:50:00,55.4,46.4,30.29,North,0,0.0,-999.9,72,-99.99,,,-99.99,,2013-04-09 07:50:00,
2013-04-09 03:56:00,55.4,46.4,30.29,North,0,0.0,-999.9,72,-99.99,,,-99.99,,2013-04-09 07:56:00,
2013-04-09 04:04:00,55.4,48.2,30.29,North,0,0.0,-999.9,77,-99.99,,,-99.99,,2013-04-09 08:04:00,
2013-04-09 04:10:00,55.4,48.2,30.29,North,0,0.0,-999.9,77,-99.99,,,-99.99,,2013-04-09 08:10:00,
2013-04-09 04:16:00,53.6,46.4,30.29,North,0,0.0,-999.9,77,-99.99,,,-99.99,,2013-04-09 08:16:00,
2013-04-09 04:22:00,53.6,48.2,30.29,North,0,0.0,-999.9,82,-99.99,,,-99.99,,2013-04-09 08:22:00,
2013-04-09 04:28:00,53.6,48.2,30.29,North,0,0.0,-999.9,82,-99.99,,,-99.99,,2013-04-09 08:28:00,
2013-04-09 04:34:00,53.6,48.2,30.28,North,0,0.0,-999.9,82,-99.99,,,-99.99,,2013-04-09 08:34:00,
2013-04-09 04:44:00,53.6,48.2,30.28,North,0,0.0,-999.9,82,-99.99,,,-99.99,,2013-04-09 08:44:00,
2013-04-09 04:54:00,51.8,46.4,30.29,North,0,0.0,-999.9,82,-99.99,,,-99.99,,2013-04-09 08:54:00,
2013-04-09 05:00:00,51.8,48.2,30.29,North,0,0.0,-999.9,88,-99.99,,,-99.99,,2013-04-09 09:00:00,
2013-04-09 05:06:00,51.8,48.2,30.29,North,0,0.0,-999.9,88,-99.99,,,-99.99,,2013-04-09 09:06:00,
2013-04-09 05:12:00,51.8,48.2,30.29,North,0,0.0,-999.9,88,-99.99,,,-99.99,,2013-04-09 09:12:00,
2013-04-09 05:18:00,51.8,48.2,30.29,North,0,0.0,-999.9,88,-99.99,,,-99.99,,2013-04-09 09:18:00,
2013-04-09 05:24:00,51.8,48.2,30.29,North,0,0.0,-999.9,88,-99.99,,,-99.99,,2013-04-09 09:24:00,
2013-04-09 05:34:00,51.8,48.2,30.29,North,0,0.0,-999.9,88,-99.99,,,-99.99,,2013-04-09 09:34:00,
2013-04-09 05:40:00,51.8,48.2,30.29,North,0,0.0,-999.9,88,-99.99,,,-99.99,,2013-04-09 09:40:00,
2013-04-09 05:46:00,51.8,46.4,30.29,North,0,0.0,-999.9,82,-99.99,,,-99.99,,2013-04-09 09:46:00,
2013-04-09 05:54:00,51.8,46.4,30.29,North,0,0.0,-999.9,82,-99.99,,,-99.99,,2013-04-09 09:54:00,
2013-04-09 06:04:00,53.6,48.2,30.29,North,0,0.0,-999.9,82,-99.99,,,-99.99,,2013-04-09 10:04:00,
2013-04-09 06:10:00,53.6,48.2,30.29,North,0,0.0,-999.9,82,-99.99,,,-99.99,,2013-04-09 10:10:00,
2013-04-09 06:16:00,53.6,48.2,30.29,North,0,0.0,-999.9,82,-99.99,,,-99.99,,2013-04-09 10:16:00,
2013-04-09 06:24:00,53.6,48.2,30.29,North,0,0.0,-999.9,82,-99.99,,,-99.99,,2013-04-09 10:24:00,
2013-04-09 06:34:00,53.6,48.2,30.31,North,0,0.0,-999.9,82,-99.99,,,-99.99,,2013-04-09 10:34:00,
2013-04-09 06:40:00,53.6,48.2,30.31,North,0,0.0,-999.9,82,-99.99,,,-99.99,,2013-04-09 10:40:00,
2013-04-09 06:46:00,53.6,48.2,30.31,North,0,0.0,-999.9,82,-99.99,,,-99.99,,2013-04-09 10:46:00,
2013-04-09 06:54:00,53.6,48.2,30.31,North,0,0.0,-999.9,82,-99.99,,,-99.99,,2013-04-09 10:54:00,
2013-04-09 07:04:00,51.8,46.4,30.31,North,0,0.0,-999.9,82,-99.99,,,-99.99,,2013-04-09 11:04:00,
2013-04-09 07:10:00,51.8,46.4,30.31,North,0,0.0,-999.9,82,-99.99,,,-99.99,,2013-04-09 11:10:00,
2013-04-09 07:16:00,51.8,46.4,30.31,North,0,0.0,-999.9,82,-99.99,,,-99.99,,2013-04-09 11:16:00,
2013-04-09 07:24:00,51.8,46.4,30.31,North,0,0.0,-999.9,82,-99.99,,,-99.99,,2013-04-09 11:24:00,
2013-04-09 07:30:00,51.8,46.4,30.31,North,0,0.0,-999.9,82,-99.99,,,-99.99,,2013-04-09 11:30:00,
2013-04-09 07:36:00,53.6,48.2,30.31,SSE,158,3.5,-999.9,82,-99.99,,,-99.99,,2013-04-09 11:36:00,
2013-04-09 07:44:00,53.6,46.4,30.31,SSE,152,3.5,-999.9,77,-99.99,,,-99.99,,2013-04-09 11:44:00,
2013-04-09 07:50:00,53.6,46.4,30.31,SSE,152,3.5,-999.9,77,-99.99,,,-99.99,,2013-04-09 11:50:00,
2013-04-09 07:55:00,55.4,48.2,30.31,SE,129,4.6,-999.9,77,-99.99,,,-99.99,,2013-04-09 11:55:00,
2013-04-09 08:04:00,55.4,46.4,30.30,South,178,2.3,-999.9,72,-99.99,,,-99.99,,2013-04-09 12:04:00,
2013-04-09 08:10:00,55.4,46.4,30.30,South,178,2.3,-999.9,72,-99.99,,,-99.99,,2013-04-09 12:10:00,
2013-04-09 08:16:00,55.4,46.4,30.30,SSE,164,6.9,-999.9,72,-99.99,,,-99.99,,2013-04-09 12:16:00,
2013-04-09 08:24:00,57.2,48.2,30.30,SSE,164,5.8,-999.9,72,-99.99,,,-99.99,,2013-04-09 12:24:00,
2013-04-09 08:30:00,57.2,48.2,30.30,SSE,164,5.8,-999.9,72,-99.99,,,-99.99,,2013-04-09 12:30:00,
2013-04-09 08:36:00,57.2,48.2,30.30,SE,145,1.2,-999.9,72,-99.99,,,-99.99,,2013-04-09 12:36:00,
2013-04-09 08:44:00,59.0,48.2,30.29,South,190,4.6,-999.9,67,-99.99,,,-99.99,,2013-04-09 12:44:00,
2013-04-09 08:50:00,59.0,48.2,30.29,South,190,4.6,-999.9,67,-99.99,,,-99.99,,2013-04-09 12:50:00,
2013-04-09 08:56:00,59.0,48.2,30.29,SE,142,8.1,-999.9,67,-99.99,,,-99.99,,2013-04-09 12:56:00,
2013-04-09 09:04:00,60.8,48.2,30.28,SSE,168,5.8,-999.9,63,-99.99,,,-99.99,,2013-04-09 13:04:00,
2013-04-09 09:10:00,60.8,48.2,30.28,SSE,168,5.8,-999.9,63,-99.99,,,-99.99,,2013-04-09 13:10:00,
2013-04-09 09:16:00,62.6,48.2,30.28,North,0,0.0,-999.9,59,-99.99,,,-99.99,,2013-04-09 13:16:00,
2013-04-09 09:22:00,66.2,48.2,30.27,East,92,1.2,-999.9,52,-99.99,,,-99.99,,2013-04-09 13:22:00,
2013-04-09 09:28:00,66.2,48.2,30.27,East,92,1.2,-999.9,52,-99.99,,,-99.99,,2013-04-09 13:28:00,
2013-04-09 09:34:00,73.4,46.4,30.26,East,89,5.8,-999.9,38,-99.99,,,-99.99,,2013-04-09 13:34:00,
2013-04-09 09:40:00,73.4,46.4,30.26,East,89,5.8,-999.9,38,-99.99,,,-99.99,,2013-04-09 13:40:00,
2013-04-09 09:47:00,73.4,46.4,30.26,East,89,5.8,-999.9,38,-99.99,,,-99.99,,2013-04-09 13:47:00,
2013-04-09 09:54:00,73.4,46.4,30.26,SE,145,3.5,-999.9,38,-99.99,,,-99.99,,2013-04-09 13:54:00,
2013-04-09 10:00:00,73.4,46.4,30.26,ESE,118,3.5,-999.9,38,-99.99,,,-99.99,,2013-04-09 14:00:00,
2013-04-09 10:06:00,73.4,46.4,30.26,ESE,118,3.5,-999.9,38,-99.99,,,-99.99,,2013-04-09 14:06:00,
2013-04-09 10:14:00,75.2,46.4,30.27,SE,140,4.6,-999.9,36,-99.99,,,-99.99,,2013-04-09 14:14:00,
2013-04-09 10:24:00,75.2,46.4,30.27,East,81,8.1,-999.9,36,-99.99,,,-99.99,,2013-04-09 14:24:00,
2013-04-09 10:30:00,75.2,46.4,30.27,East,81,8.1,-999.9,36,-99.99,,,-99.99,,2013-04-09 14:30:00,
2013-04-09 10:36:00,75.2,46.4,30.27,North,0,0.0,-999.9,36,-99.99,,,-99.99,,2013-04-09 14:36:00,
2013-04-09 10:44:00,75.2,44.6,30.28,East,92,8.1,-999.9,34,-99.99,,,-99.99,,2013-04-09 14:44:00,
2013-04-09 10:50:00,75.2,44.6,30.28,East,92,8.1,-999.9,34,-99.99,,,-99.99,,2013-04-09 14:50:00,
2013-04-09 10:56:00,75.2,44.6,30.28,NE,51,6.9,-999.9,34,-99.99,,,-99.99,,2013-04-09 14:56:00,
2013-04-09 11:02:00,77.0,44.6,30.28,NNW,332,3.5,-999.9,32,-99.99,,,-99.99,,2013-04-09 15:02:00,
2013-04-09 11:08:00,77.0,44.6,30.28,NNW,332,3.5,-999.9,32,-99.99,,,-99.99,,2013-04-09 15:08:00,
2013-04-09 11:14:00,77.0,42.8,30.28,North,1,1.2,-999.9,29,-99.99,,,-99.99,,2013-04-09 15:14:00,
2013-04-09 11:20:00,77.0,42.8,30.28,North,1,1.2,-999.9,29,-99.99,,,-99.99,,2013-04-09 15:20:00,
2013-04-09 11:26:00,77.0,42.8,30.28,SE,132,4.6,-999.9,29,-99.99,,,-99.99,,2013-04-09 15:26:00,
2013-04-09 11:32:00,77.0,42.8,30.28,ENE,57,6.9,-999.9,29,-99.99,,,-99.99,,2013-04-09 15:32:00,
2013-04-09 11:38:00,77.0,42.8,30.28,ENE,57,6.9,-999.9,29,-99.99,,,-99.99,,2013-04-09 15:38:00,
2013-04-09 11:44:00,77.0,42.8,30.28,NE,41,4.6,-999.9,29,-99.99,,,-99.99,,2013-04-09 15:44:00,
2013-04-09 11:50:00,77.0,42.8,30.28,NE,41,4.6,-999.9,29,-99.99,,,-99.99,,2013-04-09 15:50:00,
2013-04-09 11:56:00,77.0,41.0,30.27,ESE,116,6.9,-999.9,28,-99.99,,,-99.99,,2013-04-09 15:56:00,
2013-04-09 12:05:00,77.0,41.0,30.28,SE,125,8.1,-999.9,28,-99.99,,,-99.99,,2013-04-09 16:05:00,
2013-04-09 12:12:00,78.8,42.8,30.28,ENE,70,4.6,-999.9,28,-99.99,,,-99.99,,2013-04-09 16:12:00,
2013-04-09 12:18:00,78.8,42.8,30.28,ENE,70,4.6,-999.9,28,-99.99,,,-99.99,,2013-04-09 16:18:00,
2013-04-09 12:24:00,78.8,41.0,30.28,NNE,19,11.5,-999.9,26,-99.99,,,-99.99,,2013-04-09 16:24:00,
2013-04-09 12:34:00,78.8,39.2,30.28,West,280,3.5,-999.9,24,-99.99,,,-99.99,,2013-04-09 16:34:00,
2013-04-09 12:40:00,80.6,41.0,30.28,WSW,257,3.5,-999.9,24,-99.99,,,-99.99,,2013-04-09 16:40:00,
2013-04-09 12:46:00,80.6,41.0,30.28,WSW,257,3.5,-999.9,24,-99.99,,,-99.99,,2013-04-09 16:46:00,
2013-04-09 12:54:00,80.6,37.4,30.27,NNE,23,5.8,-999.9,21,-99.99,,,-99.99,,2013-04-09 16:54:00,
2013-04-09 13:00:00,80.6,37.4,30.27,NNE,23,5.8,-999.9,21,-99.99,,,-99.99,,2013-04-09 17:00:00,
2013-04-09 13:06:00,78.8,37.4,30.27,East,99,6.9,-999.9,23,-99.99,,,-99.99,,2013-04-09 17:06:00,
2013-04-09 13:14:00,80.6,35.6,30.27,NNE,33,11.5,-999.9,20,-99.99,,,-99.99,,2013-04-09 17:14:00,
2013-04-09 13:20:00,80.6,35.6,30.27,NNE,33,11.5,-999.9,20,-99.99,,,-99.99,,2013-04-09 17:20:00,
2013-04-09 13:26:00,80.6,37.4,30.26,ENE,60,12.7,-999.9,21,-99.99,,,-99.99,,2013-04-09 17:26:00,
2013-04-09 13:34:00,80.6,35.6,30.27,East,89,6.9,-999.9,20,-99.99,,,-99.99,,2013-04-09 17:34:00,
2013-04-09 13:40:00,80.6,35.6,30.27,East,89,6.9,-999.9,20,-99.99,,,-99.99,,2013-04-09 17:40:00,
2013-04-09 13:46:00,78.8,35.6,30.27,NE,50,4.6,-999.9,21,-99.99,,,-99.99,,2013-04-09 17:46:00,
2013-04-09 13:54:00,78.8,33.8,30.27,NE,37,13.8,-999.9,20,-99.99,,,-99.99,,2013-04-09 17:54:00,
2013-04-09 14:00:00,78.8,33.8,30.27,NE,37,13.8,-999.9,20,-99.99,,,-99.99,,2013-04-09 18:00:00,
2013-04-09 14:06:00,78.8,33.8,30.27,ENE,66,1.2,-999.9,20,-99.99,,,-99.99,,2013-04-09 18:06:00,
2013-04-09 14:12:00,82.4,35.6,30.27,North,5,1.2,-999.9,19,-99.99,,,-99.99,,2013-04-09 18:12:00,
2013-04-09 14:18:00,82.4,35.6,30.27,North,5,1.2,-999.9,19,-99.99,,,-99.99,,2013-04-09 18:18:00,
2013-04-09 14:24:00,80.6,35.6,30.27,NNE,19,3.5,-999.9,20,-99.99,,,-99.99,,2013-04-09 18:24:00,
2013-04-09 14:30:00,80.6,35.6,30.27,NNE,19,3.5,-999.9,20,-99.99,,,-99.99,,2013-04-09 18:30:00,
2013-04-09 14:36:00,80.6,33.8,30.27,East,82,4.6,-999.9,18,-99.99,,,-99.99,,2013-04-09 18:36:00,
2013-04-09 14:42:00,82.4,33.8,30.27,ENE,67,4.6,-999.9,17,-99.99,,,-99.99,,2013-04-09 18:42:00,
2013-04-09 14:48:00,82.4,33.8,30.27,ENE,67,4.6,-999.9,17,-99.99,,,-99.99,,2013-04-09 18:48:00,
2013-04-09 14:54:00,82.4,33.8,30.26,NE,44,4.6,-999.9,17,-99.99,,,-99.99,,2013-04-09 18:54:00,
2013-04-09 15:00:00,82.4,33.8,30.26,NE,44,4.6,-999.9,17,-99.99,,,-99.99,,2013-04-09 19:00:00,
2013-04-09 15:06:00,82.4,32.0,30.27,NW,326,0.0,-999.9,16,-99.99,,,-99.99,,2013-04-09 19:06:00,
2013-04-09 15:12:00,80.6,32.0,30.26,NNE,28,10.4,-999.9,17,-99.99,,,-99.99,,2013-04-09 19:12:00,
2013-04-09 15:18:00,80.6,32.0,30.26,NNE,28,10.4,-999.9,17,-99.99,,,-99.99,,2013-04-09 19:18:00,
2013-04-09 15:24:00,80.6,28.4,30.27,NNE,29,6.9,-999.9,15,-99.99,,,-99.99,,2013-04-09 19:24:00,
2013-04-09 15:35:00,80.6,28.4,30.27,NNE,29,6.9,-999.9,15,-99.99,,,-99.99,,2013-04-09 19:35:00,
2013-04-09 15:44:00,80.6,28.4,30.27,NE,42,1.2,-999.9,15,-99.99,,,-99.99,,2013-04-09 19:44:00,
2013-04-09 15:50:00,80.6,28.4,30.27,NE,42,1.2,-999.9,15,-99.99,,,-99.99,,2013-04-09 19:50:00,
2013-04-09 15:56:00,80.6,28.4,30.27,NNE,32,5.8,-999.9,15,-99.99,,,-99.99,,2013-04-09 19:56:00,
2013-04-09 16:04:00,80.6,30.2,30.26,ENE,60,6.9,-999.9,16,-99.99,,,-99.99,,2013-04-09 20:04:00,
2013-04-09 16:10:00,80.6,30.2,30.26,ENE,60,6.9,-999.9,16,-99.99,,,-99.99,,2013-04-09 20:10:00,
2013-04-09 16:18:00,80.6,30.2,30.26,ENE,60,6.9,-999.9,16,-99.99,,,-99.99,,2013-04-09 20:18:00,
2013-04-09 16:24:00,80.6,30.2,30.26,NNE,20,9.2,-999.9,16,-99.99,,,-99.99,,2013-04-09 20:24:00,
2013-04-09 16:34:00,80.6,30.2,30.25,NE,34,9.2,-999.9,16,-99.99,,,-99.99,,2013-04-09 20:34:00,
2013-04-09 16:40:00,80.6,30.2,30.25,NE,34,9.2,-999.9,16,-99.99,,,-99.99,,2013-04-09 20:40:00,
2013-04-09 16:46:00,80.6,28.4,30.25,NNE,29,6.9,-999.9,15,-99.99,,,-99.99,,2013-04-09 20:46:00,
2013-04-09 16:52:00,80.6,32.0,30.25,WNW,301,0.0,-999.9,17,-99.99,,,-99.99,,2013-04-09 20:52:00,
2013-04-09 16:58:00,80.6,32.0,30.25,WNW,301,0.0,-999.9,17,-99.99,,,-99.99,,2013-04-09 20:58:00,
2013-04-09 17:06:00,82.4,30.2,30.25,ENE,60,6.9,-999.9,15,-99.99,,,-99.99,,2013-04-09 21:06:00,
2013-04-09 17:14:00,80.6,28.4,30.25,NE,35,5.8,-999.9,15,-99.99,,,-99.99,,2013-04-09 21:14:00,
2013-04-09 17:20:00,80.6,28.4,30.25,NE,35,5.8,-999.9,15,-99.99,,,-99.99,,2013-04-09 21:20:00,
2013-04-09 17:26:00,80.6,28.4,30.26,NW,305,3.5,-999.9,15,-99.99,,,-99.99,,2013-04-09 21:26:00,
2013-04-09 17:34:00,80.6,30.2,30.26,ESE,118,1.2,-999.9,16,-99.99,,,-99.99,,2013-04-09 21:34:00,
2013-04-09 17:40:00,80.6,30.2,30.26,ESE,118,1.2,-999.9,16,-99.99,,,-99.99,,2013-04-09 21:40:00,
2013-04-09 17:46:00,80.6,30.2,30.26,North,8,3.5,-999.9,16,-99.99,,,-99.99,,2013-04-09 21:46:00,
2013-04-09 17:52:00,80.6,32.0,30.26,NNE,27,4.6,-999.9,17,-99.99,,,-99.99,,2013-04-09 21:52:00,
2013-04-09 17:58:00,80.6,32.0,30.26,NNE,27,4.6,-999.9,17,-99.99,,,-99.99,,2013-04-09 21:58:00,
2013-04-09 18:04:00,80.6,30.2,30.27,NNE,29,3.5,-999.9,16,-99.99,,,-99.99,,2013-04-09 22:04:00,
2013-04-09 18:10:00,80.6,30.2,30.27,NNE,29,3.5,-999.9,16,-99.99,,,-99.99,,2013-04-09 22:10:00,
2013-04-09 18:16:00,78.8,28.4,30.27,NE,41,8.1,-999.9,16,-99.99,,,-99.99,,2013-04-09 22:16:00,
2013-04-09 18:22:00,78.8,32.0,30.27,NNE,21,8.1,-999.9,18,-99.99,,,-99.99,,2013-04-09 22:22:00,
2013-04-09 18:28:00,78.8,32.0,30.27,NNE,21,8.1,-999.9,18,-99.99,,,-99.99,,2013-04-09 22:28:00,
2013-04-09 18:34:00,78.8,32.0,30.27,NNE,17,6.9,-999.9,18,-99.99,,,-99.99,,2013-04-09 22:34:00,
2013-04-09 18:40:00,78.8,32.0,30.27,North,0,0.0,-999.9,18,-99.99,,,-99.99,,2013-04-09 22:40:00,
2013-04-09 18:46:00,78.8,32.0,30.27,North,0,0.0,-999.9,18,-99.99,,,-99.99,,2013-04-09 22:46:00,
2013-04-09 18:54:00,78.8,33.8,30.27,NNW,341,2.3,-999.9,20,-99.99,,,-99.99,,2013-04-09 22:54:00,
2013-04-09 19:00:00,78.8,33.8,30.27,NNW,341,2.3,-999.9,20,-99.99,,,-99.99,,2013-04-09 23:00:00,
2013-04-09 19:06:00,78.8,32.0,30.27,NNE,18,2.3,-999.9,18,-99.99,,,-99.99,,2013-04-09 23:06:00,
2013-04-09 19:12:00,77.0,32.0,30.27,North,11,3.5,-999.9,19,-99.99,,,-99.99,,2013-04-09 23:12:00,
2013-04-09 19:18:00,77.0,32.0,30.27,North,11,3.5,-999.9,19,-99.99,,,-99.99,,2013-04-09 23:18:00,
2013-04-09 19:24:00,77.0,32.0,30.27,NNW,337,1.2,-999.9,19,-99.99,,,-99.99,,2013-04-09 23:24:00,
2013-04-09 19:30:00,77.0,32.0,30.27,NNW,337,1.2,-999.9,19,-99.99,,,-99.99,,2013-04-09 23:30:00,
2013-04-09 19:36:00,75.2,32.0,30.27,North,3,1.2,-999.9,21,-99.99,,,-99.99,,2013-04-09 23:36:00,
2013-04-09 19:42:00,75.2,33.8,30.28,North,0,0.0,-999.9,22,-99.99,,,-99.99,,2013-04-09 23:42:00,
2013-04-09 19:48:00,75.2,33.8,30.28,North,0,0.0,-999.9,22,-99.99,,,-99.99,,2013-04-09 23:48:00,
2013-04-09 19:54:00,73.4,33.8,30.28,North,0,0.0,-999.9,23,-99.99,,,-99.99,,2013-04-09 23:54:00,
2013-04-09 20:00:00,73.4,33.8,30.28,North,0,0.0,-999.9,23,-99.99,,,-99.99,,2013-04-10 00:00:00,
2013-04-09 20:06:00,73.4,33.8,30.29,North,0,0.0,-999.9,23,-99.99,,,-99.99,,2013-04-10 00:06:00,
2013-04-09 20:14:00,73.4,33.8,30.29,North,0,0.0,-999.9,23,-99.99,,,-99.99,,2013-04-10 00:14:00,
2013-04-09 20:20:00,73.4,33.8,30.29,North,0,0.0,-999.9,23,-99.99,,,-99.99,,2013-04-10 00:20:00,
2013-04-09 21:24:00,64.4,37.4,30.32,North,0,0.0,-999.9,37,-99.99,,,-99.99,,2013-04-10 01:24:00,
2013-04-09 21:30:00,64.4,37.4,30.32,North,0,0.0,-999.9,37,-99.99,,,-99.99,,2013-04-10 01:30:00,
2013-04-09 21:36:00,64.4,39.2,30.32,North,0,0.0,-999.9,40,-99.99,,,-99.99,,2013-04-10 01:36:00,
2013-04-09 21:42:00,64.4,35.6,30.33,North,0,0.0,-999.9,34,-99.99,,,-99.99,,2013-04-10 01:42:00,
2013-04-09 21:48:00,64.4,35.6,30.33,North,0,0.0,-999.9,34,-99.99,,,-99.99,,2013-04-10 01:48:00,
2013-04-09 21:54:00,64.4,37.4,30.33,North,0,0.0,-999.9,37,-99.99,,,-99.99,,2013-04-10 01:54:00,
2013-04-09 22:04:00,64.4,37.4,30.32,North,0,0.0,-999.9,37,-99.99,,,-99.99,,2013-04-10 02:04:00,
2013-04-09 22:10:00,64.4,37.4,30.32,North,0,0.0,-999.9,37,-99.99,,,-99.99,,2013-04-10 02:10:00,
2013-04-09 22:16:00,66.2,39.2,30.31,North,0,0.0,-999.9,37,-99.99,,,-99.99,,2013-04-10 02:16:00,
2013-04-09 22:24:00,64.4,41.0,30.30,North,0,0.0,-999.9,42,-99.99,,,-99.99,,2013-04-10 02:24:00,
2013-04-09 22:30:00,64.4,41.0,30.30,North,0,0.0,-999.9,42,-99.99,,,-99.99,,2013-04-10 02:30:00,
2013-04-09 22:36:00,62.6,41.0,30.29,North,0,0.0,-999.9,45,-99.99,,,-99.99,,2013-04-10 02:36:00,
2013-04-09 22:44:00,60.8,39.2,30.29,North,0,0.0,-999.9,45,-99.99,,,-99.99,,2013-04-10 02:44:00,
2013-04-09 22:54:00,60.8,41.0,30.29,North,0,0.0,-999.9,48,-99.99,,,-99.99,,2013-04-10 02:54:00,
2013-04-09 23:00:00,60.8,41.0,30.29,North,0,0.0,-999.9,48,-99.99,,,-99.99,,2013-04-10 03:00:00,
2013-04-09 23:06:00,60.8,42.8,30.27,North,0,0.0,-999.9,52,-99.99,,,-99.99,,2013-04-10 03:06:00,
2013-04-09 23:14:00,60.8,42.8,30.27,North,0,0.0,-999.9,52,-99.99,,,-99.99,,2013-04-10 03:14:00,
2013-04-09 23:20:00,60.8,42.8,30.27,North,0,0.0,-999.9,52,-99.99,,,-99.99,,2013-04-10 03:20:00,
2013-04-09 23:26:00,60.8,42.8,30.27,North,0,0.0,-999.9,52,-99.99,,,-99.99,,2013-04-10 03:26:00,
2013-04-09 23:34:00,59.0,42.8,30.27,North,0,0.0,-999.9,55,-99.99,,,-99.99,,2013-04-10 03:34:00,
2013-04-09 23:40:00,59.0,42.8,30.27,North,0,0.0,-999.9,55,-99.99,,,-99.99,,2013-04-10 03:40:00,
2013-04-09 23:46:00,59.0,42.8,30.26,North,0,0.0,-999.9,55,-99.99,,,-99.99,,2013-04-10 03:46:00,
2013-04-09 23:54:00,59.0,41.0,30.26,North,0,0.0,-999.9,51,-99.99,,,-99.99,,2013-04-10 03:54:00,